����������;��������(kWh)
2018-10-22 00:00;79,05
2018-10-22 00:15;79,65
2018-10-22 00:30;76,9
2018-10-22 00:45;79,35
2018-10-22 01:00;77,4
2018-10-22 01:15;77,95
2018-10-22 01:30;77,2
2018-10-22 01:45;77,85
2018-10-22 02:00;77,95
2018-10-22 02:15;79,55
2018-10-22 02:30;77,7
2018-10-22 02:45;77,05
2018-10-22 03:00;76,9
2018-10-22 03:15;77,15
2018-10-22 03:30;77,75
2018-10-22 03:45;77,65
2018-10-22 04:00;77,9
2018-10-22 04:15;79
2018-10-22 04:30;81
2018-10-22 04:45;78,9
2018-10-22 05:00;79,95
2018-10-22 05:15;80,15
2018-10-22 05:30;80,45
2018-10-22 05:45;79,45
2018-10-22 06:00;78,65
2018-10-22 06:15;76
2018-10-22 06:30;79,45
2018-10-22 06:45;76,9
2018-10-22 07:00;78,75
2018-10-22 07:15;80,85
2018-10-22 07:30;80,8
2018-10-22 07:45;80,15
2018-10-22 08:00;83,95
2018-10-22 08:15;85,85
2018-10-22 08:30;94,5
2018-10-22 08:45;151,85
2018-10-22 09:00;125,15
2018-10-22 09:15;114,5
2018-10-22 09:30;121,45
2018-10-22 09:45;126,5
2018-10-22 10:00;128,65
2018-10-22 10:15;133,8
2018-10-22 10:30;133,8
2018-10-22 10:45;135,1
2018-10-22 11:00;140,25
2018-10-22 11:15;145,25
2018-10-22 11:30;147,1
2018-10-22 11:45;153,2
2018-10-22 12:00;155,3
2018-10-22 12:15;164,1
2018-10-22 12:30;153,45
2018-10-22 12:45;140,85
2018-10-22 13:00;143,2
2018-10-22 13:15;140,85
2018-10-22 13:30;147,25
2018-10-22 13:45;144,2
2018-10-22 14:00;141,75
2018-10-22 14:15;146,25
2018-10-22 14:30;142,9
2018-10-22 14:45;141
2018-10-22 15:00;135,95
2018-10-22 15:15;130,3
2018-10-22 15:30;131,15
2018-10-22 15:45;131,4
2018-10-22 16:00;129,45
2018-10-22 16:15;125,2
2018-10-22 16:30;124,7
2018-10-22 16:45;120,2
2018-10-22 17:00;116,9
2018-10-22 17:15;114,95
2018-10-22 17:30;117,85
2018-10-22 17:45;118,85
2018-10-22 18:00;114,15
2018-10-22 18:15;110,9
2018-10-22 18:30;112,25
2018-10-22 18:45;114,2
2018-10-22 19:00;117,45
2018-10-22 19:15;113,1
2018-10-22 19:30;114,15
2018-10-22 19:45;112,25
2018-10-22 20:00;110,45
2018-10-22 20:15;107,2
2018-10-22 20:30;104,9
2018-10-22 20:45;102,8
2018-10-22 21:00;102,6
2018-10-22 21:15;97
2018-10-22 21:30;98,15
2018-10-22 21:45;97,15
2018-10-22 22:00;93,65
2018-10-22 22:15;95,4
2018-10-22 22:30;89,45
2018-10-22 22:45;89,4
2018-10-22 23:00;84,9
2018-10-22 23:15;81,7
2018-10-22 23:30;81,5
2018-10-22 23:45;81,6
2018-10-23 00:00;82,3
2018-10-23 00:15;81,5
2018-10-23 00:30;80,1
2018-10-23 00:45;79
2018-10-23 01:00;79,75
2018-10-23 01:15;78,95
2018-10-23 01:30;79,6
2018-10-23 01:45;79,6
2018-10-23 02:00;80,5
2018-10-23 02:15;79,9
2018-10-23 02:30;81,05
2018-10-23 02:45;79,2
2018-10-23 03:00;78,05
2018-10-23 03:15;78,7
2018-10-23 03:30;79,2
2018-10-23 03:45;79,45
2018-10-23 04:00;78,95
2018-10-23 04:15;79,25
2018-10-23 04:30;79,95
2018-10-23 04:45;82,75
2018-10-23 05:00;85,55
2018-10-23 05:15;82,2
2018-10-23 05:30;81,75
2018-10-23 05:45;81,15
2018-10-23 06:00;80,3
2018-10-23 06:15;78,4
2018-10-23 06:30;79,75
2018-10-23 06:45;78,7
2018-10-23 07:00;79,75
2018-10-23 07:15;83
2018-10-23 07:30;85,2
2018-10-23 07:45;87,35
2018-10-23 08:00;91,05
2018-10-23 08:15;95,1
2018-10-23 08:30;99,9
2018-10-23 08:45;103,2
2018-10-23 09:00;105,8
2018-10-23 09:15;108,9
2018-10-23 09:30;117,95
2018-10-23 09:45;123,2
2018-10-23 10:00;128,65
2018-10-23 10:15;126,6
2018-10-23 10:30;128,5
2018-10-23 10:45;131,95
2018-10-23 11:00;136,05
2018-10-23 11:15;141,1
2018-10-23 11:30;147,2
2018-10-23 11:45;142,75
2018-10-23 12:00;141,8
2018-10-23 12:15;141,45
2018-10-23 12:30;144,75
2018-10-23 12:45;145,2
2018-10-23 13:00;146,55
2018-10-23 13:15;152,85
2018-10-23 13:30;149,95
2018-10-23 13:45;143,35
2018-10-23 14:00;145,35
2018-10-23 14:15;150,85
2018-10-23 14:30;151,95
2018-10-23 14:45;144,1
2018-10-23 15:00;143,8
2018-10-23 15:15;143,5
2018-10-23 15:30;139,35
2018-10-23 15:45;138,3
2018-10-23 16:00;133,65
2018-10-23 16:15;127,45
2018-10-23 16:30;128,8
2018-10-23 16:45;128,7
2018-10-23 17:00;121,5
2018-10-23 17:15;119,85
2018-10-23 17:30;119,35
2018-10-23 17:45;119,5
2018-10-23 18:00;119,95
2018-10-23 18:15;118,25
2018-10-23 18:30;117,9
2018-10-23 18:45;119,85
2018-10-23 19:00;126,45
2018-10-23 19:15;121,55
2018-10-23 19:30;117
2018-10-23 19:45;114,05
2018-10-23 20:00;111,85
2018-10-23 20:15;103,6
2018-10-23 20:30;101
2018-10-23 20:45;102,75
2018-10-23 21:00;102,05
2018-10-23 21:15;99,9
2018-10-23 21:30;97,65
2018-10-23 21:45;97,5
2018-10-23 22:00;92,05
2018-10-23 22:15;91
2018-10-23 22:30;86,8
2018-10-23 22:45;88,1
2018-10-23 23:00;84,95
2018-10-23 23:15;83,75
2018-10-23 23:30;83,5
2018-10-23 23:45;84,65
2018-10-24 00:00;80,45
2018-10-24 00:15;83,45
2018-10-24 00:30;80,05
2018-10-24 00:45;80,05
2018-10-24 01:00;81,35
2018-10-24 01:15;78,4
2018-10-24 01:30;79,7
2018-10-24 01:45;77,45
2018-10-24 02:00;80,55
2018-10-24 02:15;77,75
2018-10-24 02:30;79,55
2018-10-24 02:45;80
2018-10-24 03:00;79,35
2018-10-24 03:15;83,6
2018-10-24 03:30;84,75
2018-10-24 03:45;84,75
2018-10-24 04:00;87,2
2018-10-24 04:15;87,05
2018-10-24 04:30;89,45
2018-10-24 04:45;88,3
2018-10-24 05:00;87,55
2018-10-24 05:15;82,1
2018-10-24 05:30;81,5
2018-10-24 05:45;82,1
2018-10-24 06:00;82,8
2018-10-24 06:15;79,85
2018-10-24 06:30;78,45
2018-10-24 06:45;78,35
2018-10-24 07:00;79,55
2018-10-24 07:15;84,35
2018-10-24 07:30;81,25
2018-10-24 07:45;87
2018-10-24 08:00;90,05
2018-10-24 08:15;94,25
2018-10-24 08:30;96,8
2018-10-24 08:45;102,35
2018-10-24 09:00;112,85
2018-10-24 09:15;120,05
2018-10-24 09:30;123,4
2018-10-24 09:45;126,65
2018-10-24 10:00;128,85
2018-10-24 10:15;135,05
2018-10-24 10:30;134,35
2018-10-24 10:45;139,05
2018-10-24 11:00;142,1
2018-10-24 11:15;149,2
2018-10-24 11:30;152,35
2018-10-24 11:45;151,55
2018-10-24 12:00;149
2018-10-24 12:15;193,9
2018-10-24 12:30;186,9
2018-10-24 12:45;160,45
2018-10-24 13:00;173,7
2018-10-24 13:15;161,65
2018-10-24 13:30;158,7
2018-10-24 13:45;161
2018-10-24 14:00;157
2018-10-24 14:15;155,25
2018-10-24 14:30;159
2018-10-24 14:45;157,7
2018-10-24 15:00;152,05
2018-10-24 15:15;146,05
2018-10-24 15:30;141,45
2018-10-24 15:45;138,05
2018-10-24 16:00;132,9
2018-10-24 16:15;133,4
2018-10-24 16:30;132,85
2018-10-24 16:45;129,3
2018-10-24 17:00;121,95
2018-10-24 17:15;119,9
2018-10-24 17:30;119,7
2018-10-24 17:45;120,55
2018-10-24 18:00;117,9
2018-10-24 18:15;115,95
2018-10-24 18:30;112,85
2018-10-24 18:45;112,55
2018-10-24 19:00;117,3
2018-10-24 19:15;116,55
2018-10-24 19:30;118,4
2018-10-24 19:45;114,2
2018-10-24 20:00;114,2
2018-10-24 20:15;108,65
2018-10-24 20:30;109,35
2018-10-24 20:45;107,5
2018-10-24 21:00;107,2
2018-10-24 21:15;103,05
2018-10-24 21:30;98,85
2018-10-24 21:45;92,65
2018-10-24 22:00;91,6
2018-10-24 22:15;87,8
2018-10-24 22:30;84,95
2018-10-24 22:45;84,55
2018-10-24 23:00;87,05
2018-10-24 23:15;91,85
2018-10-24 23:30;89,45
2018-10-24 23:45;92,45
2018-10-25 00:00;88,55
2018-10-25 00:15;90,25
2018-10-25 00:30;87,7
2018-10-25 00:45;90,3
2018-10-25 01:00;87,8
2018-10-25 01:15;81,75
2018-10-25 01:30;81,55
2018-10-25 01:45;82,65
2018-10-25 02:00;80,8
2018-10-25 02:15;82,65
2018-10-25 02:30;81,45
2018-10-25 02:45;82,25
2018-10-25 03:00;78,7
2018-10-25 03:15;81,4
2018-10-25 03:30;81,85
2018-10-25 03:45;79,7
2018-10-25 04:00;81,85
2018-10-25 04:15;81,75
2018-10-25 04:30;83,35
2018-10-25 04:45;80,3
2018-10-25 05:00;81,65
2018-10-25 05:15;83,5
2018-10-25 05:30;83
2018-10-25 05:45;83,6
2018-10-25 06:00;83,55
2018-10-25 06:15;81,75
2018-10-25 06:30;78,4
2018-10-25 06:45;78,8
2018-10-25 07:00;79,8
2018-10-25 07:15;84,15
2018-10-25 07:30;82,95
2018-10-25 07:45;89,9
2018-10-25 08:00;93,7
2018-10-25 08:15;90,9
2018-10-25 08:30;95,2
2018-10-25 08:45;98,65
2018-10-25 09:00;104,9
2018-10-25 09:15;108,65
2018-10-25 09:30;112,6
2018-10-25 09:45;115,2
2018-10-25 10:00;122,65
2018-10-25 10:15;124,85
2018-10-25 10:30;124,25
2018-10-25 10:45;132,6
2018-10-25 11:00;130,45
2018-10-25 11:15;135,2
2018-10-25 11:30;139,55
2018-10-25 11:45;147,55
2018-10-25 12:00;147,2
2018-10-25 12:15;149,45
2018-10-25 12:30;150
2018-10-25 12:45;152,85
2018-10-25 13:00;154,85
2018-10-25 13:15;158,45
2018-10-25 13:30;160,45
2018-10-25 13:45;158,65
2018-10-25 14:00;159,8
2018-10-25 14:15;159,4
2018-10-25 14:30;163,9
2018-10-25 14:45;149
2018-10-25 15:00;143,25
2018-10-25 15:15;140,8
2018-10-25 15:30;139,4
2018-10-25 15:45;137,35
2018-10-25 16:00;132,9
2018-10-25 16:15;127,55
2018-10-25 16:30;126,45
2018-10-25 16:45;123,45
2018-10-25 17:00;118,95
2018-10-25 17:15;117,25
2018-10-25 17:30;119,3
2018-10-25 17:45;121,4
2018-10-25 18:00;117,1
2018-10-25 18:15;112,65
2018-10-25 18:30;110,1
2018-10-25 18:45;111,9
2018-10-25 19:00;116,3
2018-10-25 19:15;117
2018-10-25 19:30;120,75
2018-10-25 19:45;119,9
2018-10-25 20:00;119,95
2018-10-25 20:15;112,1
2018-10-25 20:30;110,8
2018-10-25 20:45;110,85
2018-10-25 21:00;104,7
2018-10-25 21:15;105,3
2018-10-25 21:30;94,65
2018-10-25 21:45;93,8
2018-10-25 22:00;90
2018-10-25 22:15;84,2
2018-10-25 22:30;84,25
2018-10-25 22:45;82,25
2018-10-25 23:00;83,45
2018-10-25 23:15;82,75
2018-10-25 23:30;83,1
2018-10-25 23:45;87,45
2018-10-26 00:00;81,05
2018-10-26 00:15;79,7
2018-10-26 00:30;80,55
2018-10-26 00:45;79,05
2018-10-26 01:00;79,35
2018-10-26 01:15;81,4
2018-10-26 01:30;81,3
2018-10-26 01:45;80,85
2018-10-26 02:00;78,25
2018-10-26 02:15;78,3
2018-10-26 02:30;81,35
2018-10-26 02:45;79,5
2018-10-26 03:00;81
2018-10-26 03:15;81,9
2018-10-26 03:30;80,85
2018-10-26 03:45;81,55
2018-10-26 04:00;79,65
2018-10-26 04:15;79,9
2018-10-26 04:30;80,7
2018-10-26 04:45;79,15
2018-10-26 05:00;81,4
2018-10-26 05:15;83,6
2018-10-26 05:30;85,5
2018-10-26 05:45;83,8
2018-10-26 06:00;80,85
2018-10-26 06:15;77,85
2018-10-26 06:30;79,5
2018-10-26 06:45;79,4
2018-10-26 07:00;81,35
2018-10-26 07:15;82,2
2018-10-26 07:30;81,55
2018-10-26 07:45;85,75
2018-10-26 08:00;90,75
2018-10-26 08:15;89,8
2018-10-26 08:30;97,3
2018-10-26 08:45;105,6
2018-10-26 09:00;105,75
2018-10-26 09:15;114
2018-10-26 09:30;113,55
2018-10-26 09:45;113
2018-10-26 10:00;114,15
2018-10-26 10:15;126,75
2018-10-26 10:30;136
2018-10-26 10:45;131
2018-10-26 11:00;132,3
2018-10-26 11:15;138,6
2018-10-26 11:30;141,55
2018-10-26 11:45;147,65
2018-10-26 12:00;145,7
2018-10-26 12:15;141,1
2018-10-26 12:30;142,95
2018-10-26 12:45;144,85
2018-10-26 13:00;140,95
2018-10-26 13:15;142
2018-10-26 13:30;141,95
2018-10-26 13:45;138,55
2018-10-26 14:00;136,25
2018-10-26 14:15;135,05
2018-10-26 14:30;132,9
2018-10-26 14:45;131,7
2018-10-26 15:00;109,25
2018-10-26 15:15;0
2018-10-26 15:30;59
2018-10-26 15:45;123,2
2018-10-26 16:00;117,05
2018-10-26 16:15;114,65
2018-10-26 16:30;110,95
2018-10-26 16:45;111,1
2018-10-26 17:00;106,75
2018-10-26 17:15;106,9
2018-10-26 17:30;105,85
2018-10-26 17:45;104,7
2018-10-26 18:00;106,45
2018-10-26 18:15;103,45
2018-10-26 18:30;104,85
2018-10-26 18:45;104,6
2018-10-26 19:00;111,15
2018-10-26 19:15;111,15
2018-10-26 19:30;113
2018-10-26 19:45;110,25
2018-10-26 20:00;107,8
2018-10-26 20:15;113,55
2018-10-26 20:30;108,1
2018-10-26 20:45;108,2
2018-10-26 21:00;102,2
2018-10-26 21:15;105,1
2018-10-26 21:30;104,7
2018-10-26 21:45;102,45
2018-10-26 22:00;97,15
2018-10-26 22:15;91,8
2018-10-26 22:30;84,4
2018-10-26 22:45;85
2018-10-26 23:00;82,5
2018-10-26 23:15;84
2018-10-26 23:30;82,75
2018-10-26 23:45;86,25
2018-10-27 00:00;83,45
2018-10-27 00:15;80,25
2018-10-27 00:30;80,4
2018-10-27 00:45;79,4
2018-10-27 01:00;80,9
2018-10-27 01:15;78,75
2018-10-27 01:30;82,85
2018-10-27 01:45;80,55
2018-10-27 02:00;82,05
2018-10-27 02:15;80,35
2018-10-27 02:30;81,5
2018-10-27 02:45;80,05
2018-10-27 03:00;80,8
2018-10-27 03:15;80,55
2018-10-27 03:30;81,6
2018-10-27 03:45;81,5
2018-10-27 04:00;81,7
2018-10-27 04:15;80,15
2018-10-27 04:30;82,85
2018-10-27 04:45;80,25
2018-10-27 05:00;79,6
2018-10-27 05:15;84,8
2018-10-27 05:30;80,55
2018-10-27 05:45;81,8
2018-10-27 06:00;79,2
2018-10-27 06:15;78,1
2018-10-27 06:30;76,25
2018-10-27 06:45;77,9
2018-10-27 07:00;78
2018-10-27 07:15;76,3
2018-10-27 07:30;74,5
2018-10-27 07:45;71,95
2018-10-27 08:00;75,15
2018-10-27 08:15;75,1
2018-10-27 08:30;72,6
2018-10-27 08:45;74,3
2018-10-27 09:00;77,2
2018-10-27 09:15;74,5
2018-10-27 09:30;74,6
2018-10-27 09:45;78,8
2018-10-27 10:00;58,9
2018-10-27 10:15;44
2018-10-27 10:30;46,35
2018-10-27 10:45;35
2018-10-27 11:00;34,45
2018-10-27 11:15;51,2
2018-10-27 11:30;46,4
2018-10-27 11:45;40,95
2018-10-27 12:00;39,6
2018-10-27 12:15;39,8
2018-10-27 12:30;39,65
2018-10-27 12:45;38,6
2018-10-27 13:00;37,7
2018-10-27 13:15;37,35
2018-10-27 13:30;37
2018-10-27 13:45;36,75
2018-10-27 14:00;36,3
2018-10-27 14:15;37,1
2018-10-27 14:30;35,95
2018-10-27 14:45;37,2
2018-10-27 15:00;37,55
2018-10-27 15:15;38,7
2018-10-27 15:30;39,9
2018-10-27 15:45;40,5
2018-10-27 16:00;42,5
2018-10-27 16:15;40,9
2018-10-27 16:30;40,8
2018-10-27 16:45;39,85
2018-10-27 17:00;39
2018-10-27 17:15;40
2018-10-27 17:30;39,95
2018-10-27 17:45;42,15
2018-10-27 18:00;42,75
2018-10-27 18:15;42,55
2018-10-27 18:30;44,55
2018-10-27 18:45;43,3
2018-10-27 19:00;47,55
2018-10-27 19:15;46,4
2018-10-27 19:30;48,1
2018-10-27 19:45;49,25
2018-10-27 20:00;47,75
2018-10-27 20:15;52,35
2018-10-27 20:30;53,7
2018-10-27 20:45;53,05
2018-10-27 21:00;60,85
2018-10-27 21:15;94,8
2018-10-27 21:30;94,2
2018-10-27 21:45;89,25
2018-10-27 22:00;89,75
2018-10-27 22:15;88
2018-10-27 22:30;79,35
2018-10-27 22:45;76,9
2018-10-27 23:00;78,15
2018-10-27 23:15;76,35
2018-10-27 23:30;76,75
2018-10-27 23:45;79,6
2018-10-28 00:00;76,3
2018-10-28 00:15;77,2
2018-10-28 00:30;74,4
2018-10-28 00:45;76,15
2018-10-28 01:00;74,95
2018-10-28 01:15;76,3
2018-10-28 01:30;75,55
2018-10-28 01:45;77,4
2018-10-28 02:00;74,4
2018-10-28 02:15;75,15
2018-10-28 02:30;73,15
2018-10-28 02:45;75,05
2018-10-28 03:00;74,6
2018-10-28 03:15;74,8
2018-10-28 03:15;76,15
2018-10-28 03:30;75,3
2018-10-28 03:30;77
2018-10-28 03:45;75,7
2018-10-28 03:45;76,9
2018-10-28 04:00;74,5
2018-10-28 04:00;75,45
2018-10-28 04:15;76,7
2018-10-28 04:30;76,75
2018-10-28 04:45;77,55
2018-10-28 05:00;75,65
2018-10-28 05:15;73,85
2018-10-28 05:30;72,4
2018-10-28 05:45;71,9
2018-10-28 06:00;72,8
2018-10-28 06:15;70,45
2018-10-28 06:30;72,05
2018-10-28 06:45;69,55
2018-10-28 07:00;66,1
2018-10-28 07:15;64,3
2018-10-28 07:30;65,15
2018-10-28 07:45;64,8
2018-10-28 08:00;68,7
2018-10-28 08:15;68,35
2018-10-28 08:30;69,45
2018-10-28 08:45;68,9
2018-10-28 09:00;67,75
2018-10-28 09:15;69,4
2018-10-28 09:30;66,15
2018-10-28 09:45;66,8
2018-10-28 10:00;67,3
2018-10-28 10:15;66,2
2018-10-28 10:30;67,85
2018-10-28 10:45;67,9
2018-10-28 11:00;68,55
2018-10-28 11:15;69,05
2018-10-28 11:30;71,05
2018-10-28 11:45;76,7
2018-10-28 12:00;70,75
2018-10-28 12:15;70,8
2018-10-28 12:30;68,7
2018-10-28 12:45;71,8
2018-10-28 13:00;76,1
2018-10-28 13:15;75
2018-10-28 13:30;77,1
2018-10-28 13:45;71,25
2018-10-28 14:00;74,35
2018-10-28 14:15;72,7
2018-10-28 14:30;77,05
2018-10-28 14:45;75,2
2018-10-28 15:00;73,6
2018-10-28 15:15;76,9
2018-10-28 15:30;77
2018-10-28 15:45;75,5
2018-10-28 16:00;73,35
2018-10-28 16:15;78,25
2018-10-28 16:30;76,4
2018-10-28 16:45;79,3
2018-10-28 17:00;80,15
2018-10-28 17:15;80,75
2018-10-28 17:30;84,55
2018-10-28 17:45;84,15
2018-10-28 18:00;90,1
2018-10-28 18:15;85,05
2018-10-28 18:30;85
2018-10-28 18:45;87,75
2018-10-28 19:00;88,5
2018-10-28 19:15;86,1
2018-10-28 19:30;86,1
2018-10-28 19:45;90,5
2018-10-28 20:00;87,7
2018-10-28 20:15;89,7
2018-10-28 20:30;85,95
2018-10-28 20:45;87,4
2018-10-28 21:00;86,85
2018-10-28 21:15;85,9
2018-10-28 21:30;83
2018-10-28 21:45;82,2
2018-10-28 22:00;79,35
2018-10-28 22:15;78,7
2018-10-28 22:30;78,5
2018-10-28 22:45;80,45
2018-10-28 23:00;79,75
2018-10-28 23:15;77,15
2018-10-28 23:30;74,65
2018-10-28 23:45;77,8

